This demonstration page uses our WeatherBlox Daily Observations layout. Learn more.

Left ArrowRight Arrow

39.08367, -84.50855

Hourly Observations for October 27, 2015

Temp ( °F °C ) Dew Point ( °F °C ) Humidity (%) Winds ( mph kmh ) Pressure ( in mb ) Visibility ( mi km ) Precip ( " mm )
12:53 am 00:53 Cloudy 55 12.8 38 3.3 53 53 NE 6 9 30.28 1025 10 16 0.00 0.00
1:53 am 01:53 Cloudy 55 12.8 38 3.3 53 53 NE 5 7 30.26 1025 10 16 0.00 0.03
2:53 am 02:53 Cloudy 54 12.2 38 3.3 55 55 N 3 6 30.25 1025 10 16 0.00 0.00
3:53 am 03:53 Cloudy with Light Rain 54 12.2 40 4.4 59 59 NNE 5 7 30.25 1024 10 16 0.00 0.03
4:53 am 04:53 Cloudy with Light Rain 51 10.6 46 7.8 83 83 NE 3 6 30.25 1025 10 16 0.00 0.03
5:53 am 05:53 Cloudy with Light Rain 49 9.4 48 8.9 97 97 Calm 30.26 1025 10 16 0.02 0.51
6:53 am 06:53 Cloudy with Light Rain 49 9.4 47 8.3 93 93 NE 3 6 30.27 1025 6 10 0.03 0.76
7:53 am 07:53 Cloudy with Light Rain 48 8.9 48 8.9 100 100 NE 5 7 30.27 1025 6 10 0.05 1.27
8:31 am 08:31 Cloudy with Light Rain 49 9.4 48 8.9 97 97 NE 6 9 30.27 1025 5 8 0.02 0.51
8:37 am 08:37 Cloudy with Light Rain 49 9.4 48 8.9 97 97 NE 5 7 30.27 1025 5 8 0.02 0.51
8:44 am 08:44 Cloudy with Light Rain 48 9 48 9 100 100 NE 5 7 30.27 1025 5 8 0.00 0.00
8:53 am 08:53 Cloudy with Light Rain 49 9.4 49 9.4 100 100 NE 5 7 30.27 1025 5 8 0.02 0.51
9:16 am 09:16 Cloudy with Light Rain 48 9 48 9 100 100 NNE 5 7 30.27 1025 6 10 0.00 0.00
9:53 am 09:53 Cloudy with Light Rain 50 10 50 10 100 100 NNE 5 7 30.27 1025 8 13 0.02 0.51
10:53 am 10:53 Cloudy 52 11.1 51 10.6 97 97 ENE 7 11 30.24 1024 10 16 0.00 0.03
11:53 am 11:53 Cloudy 53 11.7 52 11.1 96 96 E 5 7 30.23 1024 10 16 0.00 0.03
12:32 pm 12:32 Cloudy 54 12.2 52 11.1 93 93 E 5 7 30.21 1023 10 16 0.00 0.00
12:53 pm 12:53 Cloudy with Light Rain 55 12.8 53 11.7 93 93 NE 8 13 30.20 1023 10 16 0.00 0.03
1:53 pm 13:53 Cloudy with Light Rain 54 12.2 52 11.1 93 93 E 6 9 30.17 1022 8 13 0.01 0.25
2:53 pm 14:53 Cloudy with Light Rain 54 12.2 52 11.1 93 93 E 7 11 30.14 1021 10 16 0.01 0.25
3:04 pm 15:04 Cloudy with Light Rain 54 12 54 12 100 100 ENE 5 7 30.12 1020 9 14 0.00 0.00
3:20 pm 15:20 Cloudy with Light Rain 54 12 52 11 94 94 E 9 15 30.12 1020 8 13 0.00 0.00
3:53 pm 15:53 Cloudy with Light Rain 54 12.2 52 11.1 93 93 E 7 11 30.11 1020 6 10 0.02 0.51
4:22 pm 16:22 Cloudy with Light Rain 54 12 54 12 100 100 E 6 9 30.09 1019 5 8 0.00 0.00
4:29 pm 16:29 Cloudy with Light Rain 53 11.7 53 11.7 100 100 E 6 9 30.09 1019 5 8 0.04 1.02
4:53 pm 16:53 Cloudy with Light Rain 53 11.7 52 11.1 96 96 E 7 11 30.09 1019 6 10 0.06 1.52
5:53 pm 17:53 Cloudy with Rain 53 11.7 52 11.1 96 96 ENE 8 13 30.06 1018 5 8 0.05 1.27
6:53 pm 18:53 Cloudy with Heavy Rain 53 11.7 52 11.1 96 96 E 6 9 30.05 1018 3 4 0.15 3.81
7:11 pm 19:11 Cloudy with Heavy Rain 53 11.7 52 11.1 96 96 E 9 15 30.03 1017 3 5 0.10 2.54
7:27 pm 19:27 Cloudy with Heavy Rain 53 11.7 52 11.1 96 96 ENE 6 9 30.03 1017 4 6 0.16 4.06
7:44 pm 19:44 Cloudy with Rain 53 11.7 52 11.1 96 96 ENE 6 9 30.03 1017 5 8 0.20 5.08
7:53 pm 19:53 Cloudy with Heavy Rain 53 11.7 52 11.1 96 96 E 7 11 30.03 1017 5 8 0.23 5.84
8:53 pm 20:53 Cloudy with Rain 53 11.7 52 11.1 96 96 ENE 7 11 30.00 1016 6 10 0.12 3.05
9:23 pm 21:23 Cloudy with Heavy Rain 53 11.7 52 11.1 96 96 E 9 15 29.97 1015 3 5 0.12 3.05
9:45 pm 21:45 Cloudy with Heavy Rain 53 11.7 52 11.1 96 96 VRB 5 7 30.00 1016 3 5 0.22 5.59
9:53 pm 21:53 Cloudy with Heavy Rain 53 11.7 53 11.7 100 100 ENE 6 9 29.98 1015 3 5 0.26 6.60
10:29 pm 22:29 Cloudy with Heavy Rain 54 12.2 54 12.2 100 100 ENE 8 13 29.94 1014 3 5 0.22 5.59
10:41 pm 22:41 Cloudy with Heavy Rain 54 12.2 53 11.7 97 97 ENE 8 13 29.94 1014 3 5 0.27 6.86
10:53 pm 22:53 Cloudy with Heavy Rain 54 12.2 54 12.2 100 100 E 10 17 29.93 1014 4 6 0.31 7.87
11:53 pm 23:53 Cloudy with Light Rain 55 12.8 53 11.7 93 93 ESE 12 19 29.89 1012 10 16 0.13 3.30

Powered by AerisWeather